• In Netherlands
  • List of Countries
  • For 7 days
  • Water Temperature
  • Satellite Maps
  • Weather Map
  • Weather Widgets
  • user-avatar
    Login

    Hourly Weather Belmopan

    Today, 25 June, Sunday

    Time Temperature Precipitation Wind Pressure Humidity
    00:00 +27°C° 0 mm 1 mps 752 mmHg 95%
    01:00 +27°C° 0 mm 1 mps 752 mmHg 95%
    02:00 +27°C° 0 mm 1 mps 752 mmHg 95%
    03:00 +27°C° 0 mm 1 mps 752 mmHg 95%
    04:00 +27°C° 0.1 mm 1 mps 752 mmHg 95%
    05:00 +27°C° 0.1 mm 1 mps 752 mmHg 95%
    06:00 +27°C° 0.1 mm 1 mps 752 mmHg 95%
    07:00 +28°C° 0.4 mm 1 mps 753 mmHg 90%
    08:00 +29°C° 0.4 mm 1 mps 753 mmHg 85%
    09:00 +30°C° 0.4 mm 1 mps 754 mmHg 80%
    10:00 +32°C° 0.3 mm 2 mps 754 mmHg 73%
    11:00 +34°C° 0.3 mm 2 mps 753 mmHg 65%
    12:00 +35°C° 0.3 mm 2 mps 753 mmHg 57%
    13:00 +35°C° 0.2 mm 2 mps 753 mmHg 57%
    14:00 +35°C° 0.2 mm 2 mps 752 mmHg 56%
    15:00 +35°C° 0.2 mm 3 mps 752 mmHg 56%
    16:00 +34°C° 0.1 mm 2 mps 752 mmHg 61%
    17:00 +32°C° 0.1 mm 2 mps 752 mmHg 67%
    18:00 +30°C° 0.1 mm 2 mps 752 mmHg 73%
    19:00 +29°C° 0 mm 1 mps 752 mmHg 80%
    20:00 +28°C° 0 mm 1 mps 753 mmHg 86%
    21:00 +27°C° 0 mm 1 mps 753 mmHg 93%
    22:00 +27°C° 0 mm 1 mps 753 mmHg 94%
    23:00 +26°C° 0 mm 1 mps 753 mmHg 95%

    Tomorrow, 26 June, Monday

    Time Temperature Precipitation Wind Pressure Humidity
    00:00 +26°C° 0 mm 1 mps 753 mmHg 96%
    01:00 +25°C° 0.1 mm 1 mps 753 mmHg 97%
    02:00 +23°C° 0.1 mm 0 mps 752 mmHg 98%
    03:00 +22°C° 0.1 mm 0 mps 752 mmHg 99%
    04:00 +23°C° 0.1 mm 0 mps 752 mmHg 97%
    05:00 +24°C° 0.1 mm 0 mps 752 mmHg 96%
    06:00 +24°C° 0.1 mm 0 mps 752 mmHg 95%
    07:00 +28°C° 0.1 mm 1 mps 752 mmHg 86%
    08:00 +29°C° 0.1 mm 1 mps 753 mmHg 78%
    09:00 +31°C° 0.1 mm 1 mps 753 mmHg 69%
    10:00 +32°C° 0.2 mm 1 mps 753 mmHg 64%
    11:00 +34°C° 0.2 mm 2 mps 753 mmHg 59%
    12:00 +35°C° 0.2 mm 2 mps 752 mmHg 54%
    13:00 +35°C° 0.2 mm 2 mps 752 mmHg 55%
    14:00 +35°C° 0.2 mm 2 mps 751 mmHg 56%
    15:00 +35°C° 0.2 mm 2 mps 750 mmHg 56%
    16:00 +34°C° 0.1 mm 2 mps 751 mmHg 62%
    17:00 +32°C° 0.1 mm 2 mps 751 mmHg 68%
    18:00 +30°C° 0.1 mm 2 mps 751 mmHg 73%
    19:00 +29°C° 0 mm 1 mps 751 mmHg 80%
    20:00 +28°C° 0 mm 1 mps 752 mmHg 86%
    21:00 +27°C° 0 mm 1 mps 752 mmHg 93%
    22:00 +26°C° 0 mm 1 mps 752 mmHg 94%
    23:00 +26°C° 0 mm 1 mps 752 mmHg 95%

    Day after tomorrow, 27 June, Tuesday

    Time Temperature Precipitation Wind Pressure Humidity
    00:00 +26°C° 0 mm 1 mps 752 mmHg 97%
    01:00 +23°C° 0.1 mm 0 mps 752 mmHg 97%
    02:00 +23°C° 0.1 mm 0 mps 751 mmHg 98%
    03:00 +23°C° 0.1 mm 0 mps 751 mmHg 99%
    04:00 +23°C° 0.2 mm 0 mps 751 mmHg 98%
    05:00 +24°C° 0.2 mm 0 mps 751 mmHg 96%
    06:00 +24°C° 0.2 mm 0 mps 751 mmHg 95%
    07:00 +28°C° 0.3 mm 1 mps 752 mmHg 85%
    08:00 +30°C° 0.3 mm 1 mps 752 mmHg 75%
    09:00 +32°C° 0.3 mm 1 mps 752 mmHg 65%
    10:00 +32°C° 0.3 mm 2 mps 752 mmHg 65%
    11:00 +32°C° 0.3 mm 2 mps 752 mmHg 65%
    12:00 +34°C° 0.3 mm 2 mps 751 mmHg 65%
    13:00 +34°C° 0.2 mm 2 mps 751 mmHg 63%
    14:00 +34°C° 0.2 mm 2 mps 750 mmHg 62%
    15:00 +35°C° 0.2 mm 2 mps 750 mmHg 60%
    16:00 +34°C° 0 mm 2 mps 750 mmHg 64%
    17:00 +32°C° 0 mm 2 mps 750 mmHg 69%
    18:00 +31°C° 0 mm 2 mps 750 mmHg 73%
    19:00 +29°C° 0 mm 2 mps 750 mmHg 79%
    20:00 +28°C° 0 mm 2 mps 751 mmHg 86%
    21:00 +27°C° 0 mm 1 mps 751 mmHg 92%
    22:00 +27°C° 0 mm 1 mps 751 mmHg 93%
    23:00 +27°C° 0 mm 1 mps 751 mmHg 94%

    28 June, Wednesday

    Time Temperature Precipitation Wind Pressure Humidity
    00:00 +27°C° 0 mm 1 mps 751 mmHg 95%
    01:00 +27°C° 0 mm 1 mps 751 mmHg 96%
    02:00 +26°C° 0 mm 1 mps 751 mmHg 96%
    03:00 +26°C° 0 mm 1 mps 750 mmHg 96%
    04:00 +26°C° 0 mm 1 mps 751 mmHg 95%
    05:00 +26°C° 0 mm 1 mps 751 mmHg 95%
    06:00 +26°C° 0 mm 1 mps 751 mmHg 95%
    07:00 +28°C° 0.3 mm 1 mps 751 mmHg 87%
    08:00 +29°C° 0.3 mm 2 mps 752 mmHg 80%
    09:00 +31°C° 0.3 mm 2 mps 752 mmHg 73%
    10:00 +32°C° 0.3 mm 2 mps 752 mmHg 67%
    11:00 +34°C° 0.3 mm 2 mps 751 mmHg 61%
    12:00 +35°C° 0.3 mm 2 mps 751 mmHg 55%
    13:00 +35°C° 0.2 mm 2 mps 751 mmHg 53%
    14:00 +35°C° 0.2 mm 3 mps 750 mmHg 52%
    15:00 +36°C° 0.2 mm 3 mps 750 mmHg 51%
    16:00 +34°C° 0.2 mm 3 mps 750 mmHg 58%
    17:00 +31°C° 0.2 mm 2 mps 750 mmHg 65%
    18:00 +30°C° 0.2 mm 2 mps 750 mmHg 72%
    19:00 +29°C° 0.6 mm 2 mps 751 mmHg 77%
    20:00 +28°C° 0.6 mm 2 mps 751 mmHg 83%
    21:00 +27°C° 0.6 mm 1 mps 752 mmHg 89%
    22:00 +27°C° 1.3 mm 2 mps 751 mmHg 90%
    23:00 +27°C° 1.3 mm 2 mps 751 mmHg 91%

    29 June, Thursday

    Time Temperature Precipitation Wind Pressure Humidity
    00:00 +27°C° 1.3 mm 2 mps 751 mmHg 93%
    01:00 +26°C° 0.7 mm 2 mps 751 mmHg 93%
    02:00 +26°C° 0.7 mm 2 mps 750 mmHg 94%
    03:00 +26°C° 0.7 mm 2 mps 750 mmHg 94%
    04:00 +26°C° 0.1 mm 2 mps 750 mmHg 92%
    05:00 +26°C° 0.1 mm 2 mps 751 mmHg 90%
    06:00 +26°C° 0.1 mm 2 mps 751 mmHg 88%
    07:00 +28°C° 0 mm 3 mps 751 mmHg 77%
    08:00 +30°C° 0 mm 3 mps 752 mmHg 67%
    09:00 +33°C° 0 mm 4 mps 752 mmHg 57%
    10:00 +34°C° 0 mm 4 mps 752 mmHg 54%
    11:00 +35°C° 0 mm 4 mps 752 mmHg 50%
    12:00 +36°C° 0 mm 4 mps 752 mmHg 47%
    13:00 +35°C° 0 mm 4 mps 751 mmHg 48%
    14:00 +35°C° 0 mm 4 mps 751 mmHg 50%
    15:00 +35°C° 0 mm 3 mps 750 mmHg 51%
    16:00 +33°C° 0.1 mm 3 mps 750 mmHg 59%
    17:00 +31°C° 0.1 mm 3 mps 751 mmHg 66%
    18:00 +30°C° 0.1 mm 3 mps 751 mmHg 74%
    19:00 +29°C° 0.2 mm 2 mps 751 mmHg 78%
    20:00 +28°C° 0.2 mm 2 mps 751 mmHg 82%
    21:00 +27°C° 0.2 mm 2 mps 752 mmHg 86%
    22:00 +27°C° 0 mm 2 mps 752 mmHg 88%
    23:00 +27°C° 0 mm 2 mps 752 mmHg 89%

    30 June, Friday

    Time Temperature Precipitation Wind Pressure Humidity
    00:00 +27°C° 0 mm 1 mps 752 mmHg 90%
    01:00 +27°C° 0.2 mm 1 mps 752 mmHg 91%
    02:00 +27°C° 0.2 mm 1 mps 751 mmHg 93%
    03:00 +26°C° 0.2 mm 1 mps 751 mmHg 94%
    04:00 +26°C° 0.2 mm 1 mps 751 mmHg 95%
    05:00 +26°C° 0.2 mm 1 mps 752 mmHg 95%
    06:00 +26°C° 0.2 mm 1 mps 752 mmHg 96%
    07:00 +28°C° 0.2 mm 2 mps 752 mmHg 88%
    08:00 +29°C° 0.2 mm 2 mps 753 mmHg 80%
    09:00 +31°C° 0.2 mm 3 mps 753 mmHg 72%
    10:00 +33°C° 0.1 mm 3 mps 753 mmHg 65%
    11:00 +34°C° 0.1 mm 3 mps 752 mmHg 58%
    12:00 +35°C° 0.1 mm 3 mps 752 mmHg 51%
    13:00 +35°C° 0 mm 3 mps 751 mmHg 51%
    14:00 +35°C° 0 mm 3 mps 751 mmHg 51%
    15:00 +35°C° 0 mm 3 mps 751 mmHg 51%
    16:00 +34°C° 0 mm 3 mps 751 mmHg 58%
    17:00 +33°C° 0 mm 3 mps 751 mmHg 64%
    18:00 +30°C° 0 mm 2 mps 751 mmHg 71%
    19:00 +29°C° 0 mm 2 mps 752 mmHg 77%
    20:00 +28°C° 0 mm 2 mps 752 mmHg 83%
    21:00 +27°C° 0 mm 1 mps 752 mmHg 89%
    22:00 +27°C° 0.3 mm 1 mps 752 mmHg 90%
    23:00 +27°C° 0.3 mm 1 mps 752 mmHg 92%
    Show more